Location: Newark
(34.1333°N, 7.9667°W)
Time: 18:16:19
(UTC+00:00)

Vanguard 2 - All Passes

Search period start: 18 June 2021 00:00
Search period end: 28 June 2021 00:00
Orbit: 552 x 2937 km, 32.9° (Epoch: 17 June)

Date Brightness Start Highest point End Pass type
(mag) Time Alt. Az. Time Alt. Az. Time Alt. Az.
18 Jun - 15:02:36 10° SSW 15:14:45 25° SSE 15:24:18 10° E daylight
18 Jun - 17:11:23 10° SW 17:25:48 51° SSE 17:34:55 10° E daylight
18 Jun - 19:23:58 10° WSW 19:36:04 78° S 19:43:04 10° E daylight
18 Jun - 21:36:52 10° W 21:45:22 74° SSW 21:50:33 10° ESE visible
18 Jun - 23:48:37 10° W 23:53:16 26° SSW 23:56:51 10° SSE visible
19 Jun - 13:20:14 10° SE 13:21:16 10° SE 13:22:18 10° SE daylight
19 Jun - 15:18:38 10° SSW 15:32:36 33° SSE 15:43:03 10° E daylight
19 Jun - 17:28:52 10° SW 17:43:39 61° SSE 17:52:46 10° E daylight
19 Jun - 19:42:02 10° W 19:53:55 83° S 20:00:46 10° E daylight
19 Jun - 21:54:53 10° W 22:03:04 64° SSW 22:08:07 10° ESE visible
20 Jun - 00:07:09 10° WSW 00:10:36 17° SW 00:13:28 10° S visible
20 Jun - 13:30:02 10° S 13:39:06 16° SE 13:47:16 10° ESE daylight
20 Jun - 15:35:13 10° SSW 15:50:25 41° SSE 16:01:22 10° E daylight
20 Jun - 17:46:36 10° WSW 18:01:31 70° SSE 18:10:32 10° E daylight
20 Jun - 20:00:08 10° W 20:11:46 83° S 20:18:28 10° E visible
20 Jun - 22:12:56 10° W 22:20:41 51° SSW 22:25:35 10° SE visible
21 Jun - 00:27:37 10° SW 00:27:52 10° SW 00:28:06 10° SW visible
21 Jun - 13:44:40 10° S 13:56:50 23° SE 14:07:24 10° E daylight
21 Jun - 15:52:12 10° SW 16:08:16 50° SSE 16:19:27 10° E daylight
21 Jun - 18:04:31 10° WSW 18:19:24 77° S 18:28:17 10° E daylight
21 Jun - 20:18:16 10° W 20:29:36 81° S 20:36:08 10° ESE visible
21 Jun - 22:31:03 10° W 22:38:10 38° SSW 22:42:52 10° SE visible
22 Jun - 14:00:22 10° SSW 14:14:34 31° SE 14:26:29 10° E daylight
22 Jun - 16:09:31 10° SW 16:26:06 59° SSE 16:37:23 10° E daylight
22 Jun - 18:22:34 10° WSW 18:37:18 82° S 18:46:01 10° E daylight
22 Jun - 20:36:22 10° W 20:47:24 74° SSW 20:53:46 10° ESE visible
22 Jun - 22:49:19 10° W 22:55:32 28° SW 22:59:53 10° SSE visible
23 Jun - 12:14:13 10° SSE 12:21:06 13° SE 12:27:51 10° ESE daylight
23 Jun - 14:16:42 10° SSW 14:32:18 39° SSE 14:45:02 10° E daylight
23 Jun - 16:27:06 10° WSW 16:43:59 68° SSE 16:55:14 10° E daylight
23 Jun - 18:40:42 10° W 18:55:13 85° S 19:03:45 10° E daylight
23 Jun - 20:54:28 10° W 21:05:05 64° SSW 21:11:19 10° ESE visible
23 Jun - 23:07:57 10° W 23:12:46 19° SW 23:16:28 10° S visible
24 Jun - 12:27:45 10° S 12:38:42 20° SE 12:49:13 10° E daylight
24 Jun - 14:33:29 10° SW 14:50:03 47° SSE 15:03:16 10° E daylight
24 Jun - 16:44:54 10° WSW 17:01:54 75° SSE 17:13:02 10° E daylight
24 Jun - 18:58:52 10° W 19:13:08 84° S 19:21:28 10° E daylight
24 Jun - 21:12:35 10° W 21:22:41 52° SSW 21:28:44 10° SE visible
24 Jun - 23:27:37 10° WSW 23:29:55 12° SW 23:31:56 10° SSW visible
25 Jun - 12:43:00 10° S 12:56:16 27° SE 13:08:51 10° E daylight
25 Jun - 14:50:37 10° SW 15:07:51 56° SSE 15:21:19 10° E daylight
25 Jun - 17:02:52 10° WSW 17:19:51 81° S 17:30:49 10° E daylight
25 Jun - 19:17:02 10° W 19:31:01 80° S 19:39:10 10° ESE daylight
25 Jun - 21:30:47 10° W 21:40:08 41° SSW 21:45:58 10° SE visible
26 Jun - 12:59:02 10° SSW 13:13:50 35° SE 13:27:44 10° E daylight
26 Jun - 15:08:02 10° SW 15:25:41 65° SSE 15:39:15 10° E daylight
26 Jun - 17:20:58 10° W 17:37:50 85° S 17:48:36 10° E daylight
26 Jun - 19:35:11 10° W 19:48:49 74° SSW 19:56:47 10° ESE daylight
26 Jun - 21:49:08 10° W 21:57:26 30° SW 22:02:56 10° SSE visible
27 Jun - 11:12:22 10° SSE 11:20:39 15° SE 11:29:14 10° ESE daylight
27 Jun - 13:15:35 10° SSW 13:31:26 43° SSE 13:46:11 10° E daylight
27 Jun - 15:25:40 10° WSW 15:43:36 73° SSE 15:57:08 10° E daylight
27 Jun - 17:39:07 10° W 17:55:50 86° S 18:06:22 10° E daylight
27 Jun - 19:53:20 10° W 20:06:32 64° SSW 20:14:19 10° ESE daylight
27 Jun - 22:07:50 10° W 22:14:36 22° SW 22:19:28 10° S visible
